RH
68 84 94 96 97 98 98 80 68 73 80 91 93 85 71 65 58 47 34 32 32 33 31 32 34 35 37 40 40 39 42 45 41 41 34 35 34 33 32 30 29 27 26 27 24
74 71 83 97 97 98 98 86 72 73 76 97 94 89 80 62 56 50 42 32 35 36 34 34 33 35 39 44 44 45 46 44 41 40 38 38 38 38 36 34 30 30 25 25 28
69 72 90 96 98 98 97 80 70 76 80 90 95 90 78 62 52 51 39 34 39 41 38 37 40 44 45 46 48 48 45 44 42 42 44 42 41 41 40 37 30 30 28 29 28
82 80 89 96 98 97 95 83 83 66 81 91 94 88 72 57 51 46 40 42 47 45 45 47 50 51 51 50 53 51 48 49 44 44 47 47 45 42 44 36 42 35 33 30 28
77 71 83 97 95 96 86 86 84 83 93 88 84 77 66 57 54 51 59 61 51 51 52 52 52 48 51 54 57 59 57 52 48 47 50 50 45 48 44 48 48 45 39 33 32
86 75 77 92 91 92 81 87 84 96 94 92 83 70 62 56 60 50 49 49 49 49 50 54 55 53 56 60 64 63 58 53 51 51 52 51 50 56 53 51 50 47 44 40 36
72 69 78 83 85 88 81 97 92 88 90 80 72 67 62 57 52 49 48 48 47 50 54 57 57 59 61 65 65 58 54 54 53 54 53 55 63 64 57 54 53 53 51 48 42
74 74 70 72 80 81 90 93 91 93 90 86 77 67 51 48 47 44 43 48 51 52 55 60 64 66 68 66 60 59 64 67 54 54 57 63 66 62 59 58 57 56 54 51 47
66 64 70 78 77 79 87 93 90 84 81 76 61 43 42 38 40 41 43 45 49 54 58 64 62 61 59 67 70 67 75 71 62 60 63 66 67 58 60 60 59 57 58 58 59
68 66 65 69 73 73 79 83 80 77 67 48 37 38 39 38 40 41 41 44 51 57 53 53 57 61 68 72 77 80 81 77 71 65 63 66 65 57 57 59 58 58 59 62 64
63 67 67 71 65 67 74 70 62 47 37 40 42 39 40 39 41 41 41 40 43 45 49 53 58 65 66 68 71 79 77 77 75 64 65 62 58 56 59 59 60 59 60 68 65
58 60 64 65 61 57 57 54 45 37 40 43 42 37 35 38 41 39 36 38 41 45 50 54 54 56 60 64 65 65 62 58 53 57 58 55 53 56 57 60 64 66 70 71 70
51 53 53 53 51 45 38 33 36 35 40 45 43 40 38 41 40 38 37 37 40 45 54 58 49 57 67 74 67 63 62 53 48 45 44 54 53 59 55 62 65 70 76 76 77
35 45 46 39 36 29 25 33 39 41 45 45 43 40 40 34 32 32 35 36 38 45 47 52 60 65 63 70 71 71 64 59 56 51 54 58 65 62 60 59 65 76 81 83 83
28 28 31 35 32 28 32 38 37 34 43 42 41 38 33 30 29 33 33 33 35 44 54 59 66 72 72 70 76 90 73 66 61 64 69 64 72 60 65 70 74 82 86 89 91
21 18 19 20 24 32 37 38 34 36 47 44 38 33 29 31 33 32 33 29 32 39 46 58 66 69 73 69 69 79 77 66 69 76 77 73 72 63 75 85 83 90 94 94 94
21 24 21 24 27 31 31 30 37 52 43 40 37 34 34 35 34 34 32 32 41 48 52 54 61 67 72 78 70 69 66 75 80 83 76 74 72 73 79 91 90 95 97 98 98
25 25 29 27 26 26 27 30 44 45 42 36 33 32 33 34 35 36 35 33 38 48 56 60 58 65 67 71 73 71 83 81 84 86 78 73 79 70 79 90 90 95 97 98 99
24 23 23 24 25 26 27 40 44 40 38 38 32 33 31 28 30 32 35 36 38 42 55 56 49 53 62 61 70 79 86 82 82 75 70 75 68 65 73 82 89 93 97 97 99
20 20 21 22 23 25 28 39 40 37 38 36 33 31 32 30 27 30 28 33 32 34 43 45 55 44 50 53 60 67 70 76 73 69 70 72 70 71 72 76 79 91 95 94 97
15 17 17 17 18 19 36 37 35 33 32 32 32 31 30 30 31 30 27 26 29 30 34 40 46 37 42 50 55 54 59 66 65 64 68 69 62 61 65 71 78 85 90 89 92
17 17 15 14 19 27 35 34 29 29 29 29 27 24 24 24 27 27 27 26 26 29 33 33 37 47 33 42 41 40 47 59 62 62 64 66 61 56 60 62 68 75 82 82 87
21 18 15 11 20 27 27 28 29 30 30 30 27 25 24 24 24 25 25 23 23 27 32 33 34 34 25 30 33 35 37 44 54 58 61 59 52 52 53 54 57 66 70 76 79
23 27 21 17 20 21 24 26 27 29 33 33 29 25 23 23 22 22 21 22 22 23 29 30 35 32 32 29 33 37 33 34 43 53 50 49 46 48 50 51 52 54 60 65 70
21 28 29 32 31 23 24 25 25 25 26 29 31 29 27 24 20 20 20 19 19 21 23 25 27 33 31 30 33 36 33 32 38 38 42 32 40 35 40 44 48 50 51 54 58
20 23 29 34 34 30 29 27 24 25 24 25 28 30 29 28 22 19 23 22 20 22 23 25 27 36 36 30 35 36 30 32 31 31 36 36 37 31 34 39 38 44 50 49 50
20 23 25 32 35 34 32 31 29 28 26 25 26 29 30 28 29 28 28 28 27 26 25 27 32 35 28 29 30 22 20 26 23 25 27 35 25 30 34 36 37 39 42 47 46